Showing default

SECOR 7 (EGRS 7), 2411

Orbit data source: Space-Track

SECOR 7 (EGRS 7), 2411 is an American payload satellite in LEO that was launched on Fri, 19 Aug 1966 UTC via an ATLAS SLV-3 AGENA D launch vehicle from the Air Force Western Test Range (AFWTR). Payload-class satellites include a variety of spacecraft equipped with specific instruments for various scientific and technological missions. These include communications satellites like Starlink; space stations such as the ISS; scientific satellites like the Hubble; Earth observation satellites from companies like Planet Labs, Umbra, and HawkEye 360; GPS; miniature CubeSats for education and research; and military/defense satellites.

Loading next visibility...
Identifier
2411, 1966-077B
Orbit
LEO
Country
Flag of USUS
Related business
Manufacturer
ITT
Mission
Defense Geodetic
Bus & Motor
SECOR, Unknown motor
Mass
18 kg wet, 18 kg dry
Launch date (UTC)
1966-08-19 (59 years ago)
Launch vehicle
ATLAS SLV-3 AGENA D
Launch site
Air Force Western Test Range (AFWTR)
Object type
Payload
Rocket body
Debris
Shape & HBR
Box, 0.2 m
Radar Cross Section
0.095 m², Medium (>0.1 m² and < 1m²)

Expand to show TLE details & history
Last TLE update: 3 days ago

TLE from 3 days ago
0 SECOR 7 (EGRS 7)
1 02411U 66077B   25258.00358007 -.00000005  00000-0 -33871-2 0  9990
2 02411  90.3281 274.2354 0012025 337.6573  22.3754  8.59615599853730
Epoch: 2025-09-15T00:05Z
TLE epoch observation values (Epoch: 2025-09-15T00:05:09.318Z)
Latitude
0.00003°
Longitude
-81.2679°
Altitude
3,679.059 km
Speed
6.3 km/s
True Right ascension
18h 16m 56s
True Declination
0° 00' 00"
Sunlit
Object was in daylight at epoch
Visualization orbit readout
Latitude
Unknown
Longitude
Unknown
Altitude
Unknown
Speed
Unknown
Apparent Right ascension
Unknown
Apparent Declination
Unknown
Sunlit
N/A
Visualization observer readout
Local Sidereal Time
07:45:14
Azimuth
Unknown
Elevation
Unknown
Doppler factor
Unknown
Orbital elements
Apogee altitude
3,697.986 km
Perigee altitude
3,673.782 km
Semi-major axis
10,064.021 km
Eccentricity
0.0012
Inclination
90.3281°
RAAN
274.2354°
Arg. of periapsis
337.6573°
True anomaly
22.42793°
Mean anomaly
22.3754°
Eccentric anomaly
22.40166°
Mean motion
2.14974 °/min
Orbital period
167.46 mins
BSTAR
-0.0033871
Loading maneuver chart data...
Computing Atmospheric mass density...
Loading historical data...
Loading historical data...
Loading historical data...
Loading historical data...
Loading historical data...
Loading historical data...
Loading historical data...

Documentation

Showing up to 5 results
|